TimeEDT,TemperatureF,Dew PointF,Humidity,Sea Level PressureIn,VisibilityMPH,Wind Direction,Wind SpeedMPH,Gust SpeedMPH,PrecipitationIn,Events,Conditions,WindDirDegrees,DateUTC
12:54 AM,57.9,54.0,87,30.19,10.0,NNE,4.6,-,N/A,,Mostly Cloudy,30,2013-09-29 04:54:00
1:54 AM,57.9,54.0,87,30.18,10.0,NNE,3.5,-,N/A,,Partly Cloudy,20,2013-09-29 05:54:00
2:54 AM,57.9,54.0,87,30.16,10.0,Calm,Calm,-,N/A,,Clear,0,2013-09-29 06:54:00
3:54 AM,57.9,55.0,90,30.15,10.0,Calm,Calm,-,N/A,,Clear,0,2013-09-29 07:54:00
4:54 AM,57.0,54.0,89,30.14,10.0,Calm,Calm,-,N/A,,Clear,0,2013-09-29 08:54:00
5:54 AM,57.0,54.0,89,30.15,10.0,Calm,Calm,-,N/A,,Clear,0,2013-09-29 09:54:00
6:54 AM,55.9,53.1,90,30.15,10.0,NNW,3.5,-,N/A,,Clear,330,2013-09-29 10:54:00
7:54 AM,59.0,55.9,90,30.16,8.0,Calm,Calm,-,N/A,,Clear,0,2013-09-29 11:54:00
8:54 AM,64.0,59.0,84,30.17,10.0,NE,5.8,-,N/A,,Overcast,50,2013-09-29 12:54:00
9:54 AM,71.1,57.9,63,30.16,10.0,NE,13.8,-,N/A,,Mostly Cloudy,40,2013-09-29 13:54:00
10:54 AM,72.0,55.9,57,30.16,10.0,NE,11.5,-,N/A,,Mostly Cloudy,50,2013-09-29 14:54:00
11:54 AM,73.9,51.1,45,30.15,10.0,ENE,9.2,-,N/A,,Clear,60,2013-09-29 15:54:00
12:54 PM,75.0,51.1,43,30.13,10.0,NE,12.7,-,N/A,,Partly Cloudy,50,2013-09-29 16:54:00
1:54 PM,75.0,50.0,41,30.12,10.0,NE,12.7,17.3,N/A,,Clear,50,2013-09-29 17:54:00
2:54 PM,75.0,50.0,41,30.10,10.0,ENE,11.5,19.6,N/A,,Clear,70,2013-09-29 18:54:00
3:54 PM,73.0,48.0,41,30.09,10.0,NE,12.7,19.6,N/A,,Clear,50,2013-09-29 19:54:00
4:54 PM,71.1,46.9,42,30.09,10.0,NE,12.7,-,N/A,,Clear,40,2013-09-29 20:54:00
5:54 PM,68.0,48.9,50,30.09,10.0,NE,8.1,-,N/A,,Clear,40,2013-09-29 21:54:00
6:54 PM,62.1,50.0,65,30.08,10.0,NNE,3.5,-,N/A,,Clear,30,2013-09-29 22:54:00
7:54 PM,60.1,51.1,72,30.09,10.0,Calm,Calm,-,N/A,,Clear,0,2013-09-29 23:54:00
8:54 PM,55.9,50.0,80,30.09,10.0,Calm,Calm,-,N/A,,Clear,0,2013-09-30 00:54:00
9:54 PM,55.9,51.1,84,30.09,10.0,Calm,Calm,-,N/A,,Partly Cloudy,0,2013-09-30 01:54:00
10:54 PM,55.0,50.0,83,30.08,10.0,Calm,Calm,-,N/A,,Clear,0,2013-09-30 02:54:00
11:54 PM,54.0,50.0,86,30.07,10.0,Calm,Calm,-,N/A,,Clear,0,2013-09-30 03:54:00